User: anonymous   Login
Location: Fort Frances
(48.6170°N, 93.4170°W)
Time: 22:07:27
(UTC-05:00)
Language:

CZ-2C R/B - Orbit

View from above orbital plane
View from above orbital plane
View from above satellite
View from above satellite

Ground track
Ground track

The orbit data is extracted from the following two-line orbital elements,

1 36089U 09061B   16242.49010295  .00000152  00000-0  49353-4 0  9993
2 36089  98.0518 251.3196 0081112 223.4000 299.0062 14.49593567359457
Epoch (UTC): 29 August 2016 11:45:44
Eccentricity: 0.0081112
inclination: 98.0518°
perigee height: 669 km
apogee height: 784 km
right ascension of ascending node: 251.3196°
argument of perigee: 223.4000°
revolutions per day: 14.49593567
mean anomaly at epoch: 299.0062°
orbit number at epoch: 35945

The dashed part of the orbit path shows where the satellite is in the earth's shadow,  

DLR